{"data":{"norad_id":59437,"epoch":"2026-09-21T20:08:05.125344Z","epoch_age_seconds":49218,"freshness":"FRESH","line1":"1 59437U 24065S   26264.83894821  .00000311  00000+0  20342-4 0  9997","line2":"2 59437  53.1613  91.0987 0001462  74.1292 285.9872 15.34385267138952","mean_motion":15.34385267,"eccentricity":0.0001462,"inclination_deg":53.1613,"raan_deg":91.0987,"arg_perigee_deg":74.1292,"mean_anomaly_deg":285.9872,"bstar":2.0342e-5,"rev_number":13895,"period_min":93.848659197273,"perigee_km":461.74689289312,"apogee_km":463.74716738354,"semimajor_km":6840.8840301383,"source":"CELESTRAK","updated_at":"2026-09-22T09:00:48.941928Z"}}